7 * 24
多渠道服务支持
STARLINK-1356是美国太空探索技术公司(SpaceX)旗下星链(Starlink)星座的一颗低轨通信卫星,于2020年4月22日发射入轨。星链星座部署于约550公里近地轨道,通过相控阵天线、激光互联与OFDM传输技术,为全球提供低时延高速卫星互联网接入,可覆盖偏远地区,支持应急通信与终端直连手机等应用。
美国
(US)
| 数据来源 | 国际轨道数据 |
| 星历时间: | 2026-09-10T15:19:33+0800 1天前 查看轨道信息 |
| 半长轴: | 6725.621km |
| 偏心率: | 0.0003198 |
| 轨道倾角: | 53.038° |
| 近地点辐角 | 33.065° |
| 升交点赤经 | 252.987° |
| 平近点角 | 327.057° |
| 近地点: | 345.333km |
| 远地点: | 349.635km |
| 周期: | 91.487分钟 |
| 每日圈数: | 15.739983 |
| 事件ID | 空间交会对象 | 最接近时刻(TCA) | 交会距离 | 交会风险概率(CRP) | 交会风险指数(CRI) | 操作 |
|---|---|---|---|---|---|---|
| CDM_260908-105701-671904-556422 |
COSMOS 1743
(16719)
STARLINK-1356
(45564) | 2026-09-08T 10:57:34+0000 |
1.750 km
极远距离 | 1.997571E-6 低风险 | 0.41 | |
| CDM_260908-092601-671904-556422 |
COSMOS 1743
(16719)
STARLINK-1356
(45564) | 2026-09-08T 09:26:02+0000 |
2.902 km
极远距离 | 7.407898E-7 极低风险 | 0.32 |